This is the latest recevied weather packets stored in our database for station/object N5PA. If no packets are shown the sender has not sent any weather packets the latest 10 day(s).
| Time | Temp. | Humidity | Pressure | Rain* | Wind** | Luminosity | Snow |
|---|---|---|---|---|---|---|---|
| 1777622106 | 15.56° C | 37% | 1013 hPa | 0 mm | - | 1021 W/m² | - |
| 1777621806 | 15.56° C | 37% | 1013.1 hPa | 0 mm | - | 1018 W/m² | - |
| 1777621506 | 15.56° C | 37% | 1013.2 hPa | 0 mm | - | 1021 W/m² | - |
| 1777621204 | 15.56° C | 37% | 1013.3 hPa | 0 mm | - | 1018 W/m² | - |
| 1777620904 | 15.56° C | 37% | 1013.4 hPa | 0 mm | - | 1020 W/m² | - |
| 1777620606 | 15.56° C | 37% | 1013.4 hPa | 0 mm | - | 1016 W/m² | - |
| 1777620306 | 15.56° C | 37% | 1013.4 hPa | 0 mm | - | 1020 W/m² | - |
| 1777620006 | 15.56° C | 37% | 1013.4 hPa | 0 mm | - | 1016 W/m² | - |
| 1777619704 | 15.56° C | 37% | 1013.3 hPa | 0 mm | - | 1020 W/m² | - |
| 1777619105 | 15.56° C | 37% | 1013.1 hPa | 0.25 mm | - | 1020 W/m² | - |
| 1777618806 | 15.56° C | 37% | 1013.1 hPa | 0.25 mm | - | 1018 W/m² | - |
| 1777618506 | 15.56° C | 37% | 1013 hPa | 0.51 mm | - | 1018 W/m² | - |
| 1777618205 | 15.56° C | 37% | 1012.9 hPa | 0.51 mm | - | 1018 W/m² | - |
| 1777617904 | 15.56° C | 37% | 1012.9 hPa | 0.51 mm | - | 1020 W/m² | - |
| 1777617606 | 15.56° C | 37% | 1012.8 hPa | 0.51 mm | - | 1021 W/m² | - |
| 1777617305 | 15.56° C | 37% | 1012.8 hPa | 0.51 mm | - | 1016 W/m² | - |
| 1777617004 | 15.56° C | 37% | 1012.9 hPa | 0.51 mm | - | 1016 W/m² | - |
| 1777616705 | 15.56° C | 37% | 1013.3 hPa | 0.76 mm | - | 1016 W/m² | - |
| 1777616406 | 15.56° C | 38% | 1013.2 hPa | 1.02 mm | - | 1016 W/m² | - |
| 1777616105 | 15.56° C | 38% | 1012.8 hPa | 1.52 mm | - | 1016 W/m² | - |
| 1777615806 | 15.56° C | 38% | 1012.4 hPa | 2.03 mm | - | 1020 W/m² | - |
| 1777615506 | 16.11° C | 38% | 1013.1 hPa | 2.03 mm | - | 1016 W/m² | - |
| 1777615206 | 16.11° C | 38% | 1013.6 hPa | 2.29 mm | - | 1018 W/m² | - |
| 1777614606 | 16.11° C | 38% | 1014.2 hPa | 2.54 mm | - | 1020 W/m² | - |
| 1777614306 | 16.11° C | 39% | 1014.2 hPa | 2.79 mm | - | 1018 W/m² | - |
* Rain latest hour (hover to see other rain measurements)
** Current wind speed in m/s (hover to see current wind gust speed)